Weather in Leicester

United Kingdom     52°38′11″N   1°07′49″W
temp.,
°C
wind,
m/s
gust,
m/s
humid.,
%
clouds,
%
prec.,
mm/h
press.,
hPa
HPBL,
m
6 march, sat
sat600:00−1ene128858 0.1 103647
03:00−1nne11884 0.0 103629
06:00−1nne11883 0.0 103623
09:00+2ne11710 0.0 1036251
12:00+6ene00560 0.0 10351088
15:00+6wsw015470 0.0 10331225
18:00+3w116672 0.0 103323
21:00+1w117411 0.0 103223
7 march, sun
sun700:000wsw12795 0.0 103234
03:00−1w22830 0.0 103037
06:00−1w22860 0.0 102938
09:00+3w36700 0.0 1028362
12:00+7wnw34630 0.0 1027774
15:00+8nw23593 0.0 10251089
18:00+4wnw238318 0.0 102540
21:00+2w229033 0.0 102536
8 march, mon
mon800:00+1w238967 0.0 102566
03:00+1w3391100 0.0 102483
06:000w359491 0.0 1024109
09:00+4wsw357934 0.0 1024263
12:00+8w346318 0.0 1022665
15:00+9w45630 0.0 1021920
18:00+5w48861 0.0 1020225
21:00+2w479016 0.0 1020168
9 march, tue
tue900:00+1wsw239232 0.0 102050
03:00+1sw239527 0.0 101973
06:00+1sw239560 0.0 101869
09:00+5ssw468789 0.0 1018247
12:00+7sw598588 0.0 1017483
15:00+10ssw797383 0.1 10141043
18:00+8ssw5128481 0.2 1013540
21:00+7ssw71587100 0.0 1011808
10 march, wed
wed1000:00+7ssw91689100 1.2 1008910
03:00+8ssw101890100 1.1 1004884
06:00+9ssw101791100 1.7 1002847
09:00+11sw71287100 0.1 10021036
12:00+12wsw71071100 0.2 10021160
15:00+9ssw51287100 1.6 1000699
18:00+11sw112088100 3.3 9961064
21:00+11ssw122186100 0.0 9931166